EW9525 Weather Reports


Display with metric or nautical units.
time (UTC)temp
F
wind
direction
speed
MPH
gust
MPH
rain 1hr
in
rain 24hr
in
rain mn
in
humidity
%
barometer
mb
20260505024559 59 312 15.0 27.0 0.00 0.00 0.00 45 1006.0
20260505023058 61 332 20.0 31.0 0.00 0.00 0.00 42 1005.4
20260505021557 63 359 15.0 23.0 0.00 0.00 0.00 37 1005.3
20260505020157 64 5 14.0 21.0 0.00 0.00 0.00 36 1005.4
20260505014605 64 338 12.0 19.0 0.00 0.00 0.00 35 1005.1
20260505013055 65 6 12.0 21.0 0.00 0.00 0.00 34 1004.3
20260505011555 66 351 13.0 21.0 0.00 0.00 0.00 33 1004.0
20260505010056 67 354 17.0 22.0 0.00 0.00 0.00 32 1003.7
20260505004557 68 336 16.0 21.0 0.00 0.00 0.00 31 1003.3
20260505003054 68 338 15.0 24.0 0.00 0.00 0.00 30 1003.0
20260505001553 69 349 18.0 26.0 0.00 0.00 0.00 29 1002.7
20260505000056 70 347 20.0 27.0 0.00 0.00 0.00 29 1002.1
20260504234552 70 355 15.0 25.0 0.00 0.00 0.00 29 1002.0
20260504233052 72 345 20.0 28.0 0.00 0.00 0.00 29 1001.6
20260504231553 73 334 17.0 26.0 0.00 0.00 0.00 28 1001.1
20260504230052 73 354 19.0 26.0 0.00 0.00 0.00 28 1000.9
20260504224549 74 4 19.0 26.0 0.00 0.00 0.00 27 1000.9
20260504223050 75 356 18.0 25.0 0.00 0.00 0.00 26 1000.8
20260504221549 76 11 19.0 26.0 0.00 0.00 0.00 26 1000.8
20260504220048 76 350 19.0 26.0 0.00 0.00 0.00 26 1000.7
20260504214555 77 356 17.0 23.0 0.00 0.00 0.00 26 1000.6
20260504213048 78 342 15.0 23.0 0.00 0.00 0.00 25 1000.6
20260504211547 79 11 15.0 22.0 0.00 0.00 0.00 24 1000.7
20260504210058 79 7 16.0 25.0 0.00 0.00 0.00 24 1000.7
20260504204603 80 336 20.0 27.0 0.00 0.00 0.00 26 1000.7
20260504203059 79 329 18.0 23.0 0.00 0.00 0.00 26 1000.6
20260504201543 80 338 14.0 18.0 0.00 0.00 0.00 23 1001.0
20260504200043 83 290 4.0 13.0 0.00 0.00 0.00 19 1000.9
20260504194540 83 16 5.0 8.0 0.00 0.00 0.00 16 1001.1
20260504193038 81 91 4.0 9.0 0.00 0.00 0.00 20 1001.1
20260504191537 81 40 7.0 12.0 0.00 0.00 0.00 19 1001.3
20260504190035 81 39 6.0 13.0 0.00 0.00 0.00 19 1001.1
20260504184533 81 337 3.0 8.0 0.00 0.00 0.00 19 1001.7
20260504183031 80 86 2.0 10.0 0.00 0.00 0.00 18 1001.9
20260504181529 80 349 7.0 12.0 0.00 0.00 0.00 19 1001.9
20260504180028 79 310 3.0 9.0 0.00 0.00 0.00 22 1002.1
20260504174527 78 347 9.0 15.0 0.00 0.00 0.00 20 1002.2
20260504173024 79 360 4.0 12.0 0.00 0.00 0.00 22 1002.3
20260504171522 78 23 4.0 7.0 0.00 0.00 0.00 22 1002.3
20260504081509 44 193 2.0 4.0 0.00 0.00 0.00 64 1004.1
20260504044539 51 295 1.0 4.0 0.00 0.00 0.00 53 1006.4
20260504043039 58 58 3.0 5.0 0.00 0.00 0.00 42 1006.2
20260504041543 54 335 0.0 3.0 0.00 0.00 0.00 48 1006.4
20260504040041 57 318 1.0 3.0 0.00 0.00 0.00 44 1006.3
20260504034544 59 60 2.0 3.0 0.00 0.00 0.00 42 1006.2
20260504033036 60 76 3.0 7.0 0.00 0.00 0.00 42 1006.1
20260504031540 60 74 2.0 4.0 0.00 0.00 0.00 40 1006.2
20260504030036 60 32 0.0 2.0 0.00 0.00 0.00 40 1006.1